Date String (YYYY-MM-DD hh:mm:ss) UTC,Instrument flags,Ambient pressure (hPa),Sample flow (lpm),Bypass flow (lpm),Sample temperature (°C),Ambient temperature (°C),ASC tube jacket temperature (°C),LED temperature (°C),Box temperature (°C),Sample RH (%),Span deviation,Mass concentration (μg/m³),Mass concentration (μg/m³),Mass concentration (μg/m³)
DateTimeUTC,F1_M11,P_M11,Q1_M11,Q2_M11,T1_M11,T2_M11,T3_M11,T4_M11,T5_M11,U1_M11,ZSPAN_M11,X0_M11,X2_M11,X1_M11
2022-03-07 12:00:00,,0829.4,5.00,0.00,22.2,22.7,00.0,31.1,24.1,05.9,0000.0,0006.53,0004.89,0004.78
2022-03-07 12:01:00,,0829.4,5.00,0.00,22.2,22.3,00.0,31.1,23.9,05.9,0000.0,0006.49,0004.89,0004.79
2022-03-07 12:02:00,,0829.4,5.00,0.00,22.1,21.9,00.0,31.1,23.8,05.9,0000.0,0006.50,0004.89,0004.80
2022-03-07 12:03:00,,0829.4,4.99,0.00,22.0,21.6,00.0,31.1,23.6,06.0,0000.0,0006.50,0004.89,0004.80
2022-03-07 12:04:00,,0829.4,5.00,0.00,22.0,21.4,00.0,31.1,23.4,06.0,0000.0,0006.49,0004.90,0004.80
2022-03-07 12:05:00,,0829.3,4.99,0.00,21.9,21.2,00.0,31.0,23.3,06.0,0000.0,0006.50,0004.91,0004.82
2022-03-07 12:06:00,,0829.3,5.00,0.00,21.8,21.0,00.0,31.0,23.2,06.0,0000.0,0006.44,0004.92,0004.84
2022-03-07 12:07:00,,0829.4,4.99,0.00,21.8,21.4,00.0,31.0,23.4,06.1,0000.0,0006.53,0004.92,0004.84
2022-03-07 12:08:00,,0829.4,5.02,0.00,21.9,22.1,00.0,31.0,23.7,06.0,0000.0,0006.58,0004.94,0004.84
2022-03-07 12:09:00,,0829.4,4.99,0.00,22.1,22.7,00.0,31.1,24.0,06.0,0000.0,0006.60,0004.95,0004.86
2022-03-07 12:10:00,,0829.4,5.00,0.00,22.2,22.8,00.0,31.1,24.0,05.9,0000.0,0006.59,0004.94,0004.85
2022-03-07 12:11:00,,0829.5,5.00,0.00,22.2,22.4,00.0,31.1,23.9,05.9,0000.0,0006.56,0004.95,0004.86
2022-03-07 12:12:00,,0829.5,5.01,0.00,22.1,22.1,00.0,31.1,23.8,05.9,0000.0,0006.51,0004.94,0004.86
2022-03-07 12:13:00,,0829.5,4.99,0.00,22.0,21.7,00.0,31.1,23.6,05.9,0000.0,0006.58,0004.97,0004.88
2022-03-07 12:14:00,,0829.5,5.00,0.00,21.9,21.5,00.0,31.1,23.5,06.0,0000.0,0006.78,0005.00,0004.90
2022-03-07 12:15:00,,0829.5,4.99,0.00,21.9,21.2,00.0,31.0,23.3,06.0,0000.0,0006.86,0005.04,0004.93
2022-03-07 12:16:00,,0829.5,5.01,0.00,21.8,21.0,00.0,31.0,23.2,06.0,0000.0,0006.87,0005.04,0004.93
2022-03-07 12:17:00,,0829.5,4.99,0.00,21.8,21.4,00.0,31.0,23.3,06.0,0000.0,0006.95,0005.06,0004.94
2022-03-07 12:18:00,,0829.5,5.02,0.00,21.9,22.0,00.0,31.0,23.6,06.0,0000.0,0006.96,0005.08,0004.96
2022-03-07 12:19:00,,0829.5,5.00,0.00,22.1,22.7,00.0,31.1,23.9,05.9,0000.0,0007.00,0005.09,0004.97
2022-03-07 12:20:00,,0829.5,4.99,0.00,22.2,22.9,00.0,31.1,24.0,05.9,0000.0,0006.96,0005.09,0004.97
2022-03-07 12:21:00,,0829.5,5.00,0.00,22.2,22.5,00.0,31.1,23.9,05.9,0000.7,0006.99,0005.10,0004.97
2022-03-07 12:22:00,,0829.5,4.99,0.00,22.1,22.1,00.0,31.1,23.8,05.9,0000.0,0007.02,0005.11,0004.98
2022-03-07 12:23:00,,0829.5,5.01,0.00,22.0,21.8,00.0,31.1,23.6,05.9,0001.1,0007.05,0005.12,0004.99
2022-03-07 12:24:00,,0829.5,5.00,0.00,22.0,21.5,00.0,31.0,23.5,05.9,0001.3,0006.98,0005.11,0005.00
2022-03-07 12:25:00,,0829.5,5.00,0.00,21.9,21.2,00.0,31.0,23.4,05.9,0001.0,0006.84,0005.10,0005.00
2022-03-07 12:26:00,,0829.5,5.00,0.00,21.8,21.0,00.0,31.0,23.2,06.0,0001.6,0006.85,0005.11,0005.01
2022-03-07 12:27:00,,0829.5,5.01,0.00,21.8,21.2,00.0,31.0,23.3,06.0,0001.5,0007.20,0005.13,0005.01
2022-03-07 12:28:00,,0829.5,5.01,0.00,21.9,21.9,00.0,31.0,23.6,05.9,0001.6,0007.46,0005.12,0005.02
2022-03-07 12:29:00,,0829.5,5.01,0.00,22.0,22.6,00.0,31.0,23.9,05.9,0001.7,0007.43,0005.11,0005.02
2022-03-07 12:30:00,,0829.5,4.99,0.00,22.2,22.9,00.0,31.1,24.0,05.9,0001.8,0007.47,0005.13,0005.03
2022-03-07 12:31:00,,0829.5,5.00,0.00,22.2,22.6,00.0,31.1,24.0,05.8,0001.5,0007.49,0005.14,0005.04
2022-03-07 12:32:00,,0829.5,4.99,0.00,22.1,22.2,00.0,31.1,23.8,05.8,0001.9,0007.50,0005.15,0005.05
2022-03-07 12:33:00,,0829.5,4.99,0.00,22.1,21.8,00.0,31.1,23.7,05.9,0001.7,0007.53,0005.16,0005.06
2022-03-07 12:34:00,,0829.5,5.00,0.00,22.0,21.6,00.0,31.0,23.5,05.9,0001.6,0007.57,0005.18,0005.08
2022-03-07 12:35:00,,0829.5,5.00,0.00,21.9,21.3,00.0,31.0,23.4,05.9,0000.6,0007.58,0005.19,0005.08
2022-03-07 12:36:00,,0829.5,5.00,0.00,21.8,21.1,00.0,31.0,23.3,06.0,0000.0,0007.56,0005.19,0005.09
2022-03-07 12:37:00,,0829.5,5.00,0.00,21.8,21.2,00.0,31.0,23.3,06.1,0000.0,0008.07,0005.18,0005.09
2022-03-07 12:38:00,,0829.6,5.00,0.00,21.9,21.9,00.0,31.0,23.5,06.1,0000.0,0008.04,0005.19,0005.09
2022-03-07 12:39:00,,0829.6,5.00,0.00,22.0,22.5,00.0,31.0,23.8,06.0,0000.0,0007.80,0005.19,0005.09
2022-03-07 12:40:00,,0829.6,5.01,0.00,22.2,23.1,00.0,31.1,24.1,05.9,0000.0,0007.81,0005.20,0005.09
2022-03-07 12:41:00,,0829.6,5.00,0.00,22.3,23.1,00.0,31.1,24.1,05.8,0000.0,0007.80,0005.21,0005.09
2022-03-07 12:42:00,,0829.6,4.98,0.00,22.2,22.7,00.0,31.1,24.0,05.9,0000.0,0007.82,0005.22,0005.09
2022-03-07 12:43:00,,0829.6,5.00,0.00,22.2,22.3,00.0,31.1,23.8,06.0,0000.0,0007.86,0005.23,0005.08
2022-03-07 12:44:00,,0829.6,5.00,0.00,22.1,21.9,00.0,31.1,23.7,06.0,0000.0,0007.86,0005.23,0005.08
2022-03-07 12:45:00,,0829.5,5.00,0.00,22.0,21.6,00.0,31.1,23.5,06.0,0000.0,0007.86,0005.22,0005.06
2022-03-07 12:46:00,,0829.5,5.00,0.00,21.9,21.3,00.0,31.1,23.4,06.0,0000.0,0007.87,0005.21,0005.05
2022-03-07 12:47:00,,0829.6,5.00,0.00,21.9,21.1,00.0,31.0,23.3,06.0,0000.0,0007.89,0005.21,0005.03
2022-03-07 12:48:00,,0829.6,4.99,0.00,21.8,21.1,00.0,31.0,23.3,06.0,0000.0,0007.36,0005.23,0005.03
2022-03-07 12:49:00,,0829.6,5.01,0.00,21.9,21.8,00.0,31.0,23.5,06.0,0000.0,0007.27,0005.22,0005.03
2022-03-07 12:50:00,,0829.6,5.00,0.00,22.0,22.5,00.0,31.1,23.8,05.9,0000.0,0007.25,0005.21,0005.02
2022-03-07 12:51:00,,0829.6,5.01,0.00,22.2,23.0,00.0,31.1,24.0,05.9,0000.0,0007.21,0005.20,0005.02
2022-03-07 12:52:00,,0829.5,4.98,0.00,22.2,22.7,00.0,31.1,24.0,05.9,0000.0,0007.08,0005.16,0005.00
2022-03-07 12:53:00,,0829.5,5.00,0.00,22.2,22.3,00.0,31.1,23.9,05.9,0000.0,0007.13,0005.16,0005.01
2022-03-07 12:54:00,,0829.5,5.01,0.00,22.1,22.0,00.0,31.1,23.8,05.9,0000.0,0007.10,0005.16,0005.01
2022-03-07 12:55:00,,0829.6,4.98,0.00,22.0,21.7,00.0,31.1,23.6,05.9,0000.0,0007.03,0005.15,0005.02
2022-03-07 12:56:00,,0829.5,5.00,0.00,22.0,21.5,00.0,31.1,23.5,06.0,0000.0,0007.02,0005.15,0005.03
2022-03-07 12:57:00,,0829.6,5.01,0.00,21.9,21.2,00.0,31.0,23.4,06.0,0000.0,0007.09,0005.17,0005.04
2022-03-07 12:58:00,,0829.6,5.00,0.00,21.8,21.0,00.0,31.0,23.3,06.0,0000.0,0007.09,0005.18,0005.06
2022-03-07 12:59:00,,0829.6,4.99,0.00,21.8,21.3,00.0,31.0,23.3,06.1,0000.0,0007.08,0005.17,0005.06
